Content
SEND FEEDBACK

Daily
Averages
Monthly
Summary
United States of America

HUMBOLDT, TENNESSEE


Home > North America > United States > Tennessee
Elevation: 420 feet     Latitude: 35 48N     Longitude: 088 52W

WEATHER
 
SELECT A DAY
Number of Records: 208,250;   Date Range: 1/1/95 - 9/22/14
 
SHARE

PRINT THIS DATA

[ ← Previous Day ]
WEATHER ALMANAC - APRIL 10, 2014
[ Next Day → ]
[ °C ]   °F
Weather ElementAverageHighLow
Temperature65.3 °F79 °F (1:53 pm)48 °F (1:53 am)
Dewpoint41.1 °F45 °F (12:53 pm)35.1 °F (1:53 am)
Humidity43.4 %66 % (2:53 am)28 % (4:53 pm)
Barometer30.05 in30.11 in (7:53 am)29.97 in (5:53 pm)
Wind Speed12.1 mph19.6 mph (11:53 am)
Wind Gust28.8 mph (10:53 am)
Weather ElementAverage
Visibility10 mi
Wind DirectionSSW (198.6 °)

Weather ElementTotal
Precipitation---
Heating Degree Days1.5 (Base 65)
Growing Degree Days13.5 (Base 50)
Averaged from 22 records on April 10, 2014
WEATHER CONDITIONS BREAKOUT
WIND DIRECTION BREAKOUT
WEATHER BY HOUR - APRIL 10, 2014
[ °C ]   °F
Local TimeTemperatureDewpointHumidityBarometerVisibilityWind DirectionWind SpeedGust SpeedPrecipitationEventsConditions
1:53 AM48.0 °F35.1 °F61 %30.10 in10.0 miSSW (200°)6.9 mphClear
2:53 AM48.0 °F37.0 °F66 %30.10 in10.0 miSouth (190°)8.1 mphClear
3:53 AM50.0 °F37.0 °F61 %30.09 in10.0 miSouth (190°)8.1 mphClear
4:53 AM50.0 °F37.9 °F63 %30.09 in10.0 miSouth (190°)9.2 mphClear
5:53 AM52.0 °F37.0 °F57 %30.09 in10.0 miSouth (190°)11.5 mphClear
6:53 AM52.0 °F37.0 °F57 %30.10 in10.0 miSouth (190°)10.4 mphClear
7:53 AM55.9 °F37.9 °F51 %30.11 in10.0 miSouth (190°)12.7 mph20.7 mphClear
9:53 AM64.9 °F39.9 °F40 %30.10 in10.0 miSSW (200°)18.4 mph23.0 mphClear
10:53 AM71.1 °F41.0 °F34 %30.10 in10.0 miSouth (190°)16.1 mph28.8 mphClear
11:53 AM73.0 °F43.0 °F34 %30.09 in10.0 miSW (220°)19.6 mph28.8 mphClear
12:53 PM75.9 °F45.0 °F33 %30.06 in10.0 miSSW (210°)17.3 mph27.6 mphClear
1:53 PM79.0 °F44.1 °F29 %30.04 in10.0 miSW (230°)13.8 mph26.5 mphClear
2:53 PM78.1 °F44.1 °F30 %30.02 in10.0 miSSW (210°)13.8 mph27.6 mphClear
3:53 PM78.1 °F43.0 °F29 %29.99 in10.0 miSSW (210°)13.8 mph26.5 mphClear
4:53 PM78.1 °F42.1 °F28 %29.98 in10.0 miSSW (210°)17.3 mphClear
5:53 PM75.0 °F43.0 °F32 %29.97 in10.0 miSSW (210°)12.7 mph21.9 mphClear
6:53 PM75.0 °F42.1 °F31 %29.97 in10.0 miSouth (190°)16.1 mph25.3 mphClear
7:53 PM71.1 °F44.1 °F38 %29.99 in10.0 miSouth (180°)6.9 mphClear
8:53 PM66.9 °F43.0 °F42 %30.03 in10.0 miSouth (190°)6.9 mphClear
9:53 PM66.0 °F43.0 °F43 %30.04 in10.0 miSouth (190°)6.9 mphClear
10:53 PM63.0 °F44.1 °F50 %30.04 in10.0 miSouth (190°)8.1 mphClear
11:53 PM64.9 °F43.0 °F45 %30.03 in10.0 miSSW (200°)11.5 mphClear
Hourly data recorded from KMKL, located miles away from Humboldt, Tennessee







STORIES FROM OUR PARTNERS